San Carlos, CA

4:50 AM PDT on September 20, 2017 (GMT -0700)
San Carlos

Weather History for KSQL - August, 2013

Change the Weather History Date:

Wednesday, August 21, 2013

  Actual Average Record
Temperature  
Mean Temperature 66 °F -  
Max Temperature 73 °F 81 °F 95 °F (1974)
Min Temperature 59 °F 55 °F 48 °F (1959)
Cooling Degree Days 1    
Growing Degree Days 16 (Base 50)    
Moisture  
Dew Point 55 °F    
Average Humidity 75    
Maximum Humidity 82    
Minimum Humidity 53    
Precipitation  
Precipitation 0.00 in - - ()
Sea Level Pressure  
Sea Level Pressure 29.91 in    
Wind  
Wind Speed 5 mph (WNW)    
Max Wind Speed 13 mph    
Max Gust Speed -    
Visibility 10 miles    
Events      
Averages and records for this station are not official NWS values.
T = Trace of Precipitation, MM = Missing Value Source: NWS Daily Summary

Daily Weather History Graph

Daily Weather History Graph

Search for Another Location

Airport or City:

Trip Planner

Search our weather history database for the weather conditions in past years. The results will help you decide how hot, cold, wet, or windy it might be!

Date:

Astronomy

Aug. 21, 2013 Rise Set
Actual Time 6:30 AM PDT 7:53 PM PDT
Civil Twilight 6:02 AM PDT 8:20 PM PDT
Nautical Twilight 5:30 AM PDT 8:53 PM PDT
Astronomical Twilight 4:55 AM PDT 9:27 PM PDT
Moon 8:07 PM PDT (8/21) 7:14 AM PDT (8/21)
Length of Visible Light 14h 17m
Length of Day
13h 22m
Full, 99% of the Moon is Illuminated
Aug 21
Full
Aug 28
Last Quarter
Sep 5
New
Sep 12
First Quarter
Sep 19
Full

Hourly Weather History & Observations

Time (PDT) Temp. Dew Point Humidity Pressure Visibility Wind Dir Wind Speed Gust Speed Precip Events Conditions
12:15 AM 60.8 °F 53.6 °F 77% 29.90 in 10.0 mi NW 4.6 mph - N/A   Clear
12:35 AM 60.8 °F 53.6 °F 77% 29.90 in 10.0 mi NW 4.6 mph - N/A   Clear
12:55 AM 60.8 °F 53.6 °F 77% 29.90 in 10.0 mi West 4.6 mph - N/A   Clear
1:15 AM 60.8 °F 53.6 °F 77% 29.90 in 10.0 mi Calm Calm - N/A   Scattered Clouds
1:35 AM 60.8 °F 55.4 °F 82% 29.90 in 10.0 mi Calm Calm - N/A   Mostly Cloudy
1:55 AM 60.8 °F 55.4 °F 82% 29.91 in 10.0 mi SW 3.5 mph - N/A   Mostly Cloudy
2:15 AM 60.8 °F 55.4 °F 82% 29.90 in 10.0 mi Calm Calm - N/A   Overcast
2:35 AM 60.8 °F 55.4 °F 82% 29.90 in 10.0 mi Calm Calm - N/A   Mostly Cloudy
2:55 AM 62.6 °F 57.2 °F 82% 29.90 in 10.0 mi South 5.8 mph - N/A   Mostly Cloudy
3:15 AM 62.6 °F 57.2 °F 82% 29.90 in 10.0 mi SE 6.9 mph - N/A   Overcast
3:35 AM 62.6 °F 57.2 °F 82% 29.89 in 10.0 mi Calm Calm - N/A   Overcast
3:55 AM 62.6 °F 57.2 °F 82% 29.89 in 10.0 mi SE 5.8 mph - N/A   Overcast
4:15 AM 62.6 °F 57.2 °F 82% 29.90 in 10.0 mi South 3.5 mph - N/A   Overcast
4:35 AM 59.0 °F 53.6 °F 82% 29.90 in 10.0 mi WNW 6.9 mph - N/A   Overcast
4:55 AM 59.0 °F 53.6 °F 82% 29.90 in 10.0 mi WNW 5.8 mph - N/A   Overcast
5:15 AM 59.0 °F 53.6 °F 82% 29.89 in 10.0 mi West 3.5 mph - N/A   Overcast
5:35 AM 59.0 °F 53.6 °F 82% 29.90 in 10.0 mi NW 4.6 mph - N/A   Overcast
5:55 AM 60.8 °F 53.6 °F 77% 29.90 in 10.0 mi NNW 3.5 mph - N/A   Overcast
6:15 AM 60.8 °F 53.6 °F 77% 29.91 in 10.0 mi NW 3.5 mph - N/A   Overcast
6:35 AM 60.8 °F 53.6 °F 77% 29.91 in 10.0 mi WNW 3.5 mph - N/A   Overcast
6:51 AM 60.8 °F 53.6 °F 77% 29.92 in 10.0 mi West 4.6 mph - N/A   Overcast
6:55 AM 60.8 °F 53.6 °F 77% 29.92 in 10.0 mi West 3.5 mph - N/A   Overcast
7:47 AM 60.8 °F 53.6 °F 77% 29.94 in 10.0 mi WNW 4.6 mph - N/A   Overcast
8:50 AM 62.6 °F 55.4 °F 77% 29.95 in 10.0 mi NNE 3.5 mph - N/A   Overcast
9:47 AM 62.6 °F 53.6 °F 72% 29.95 in 10.0 mi WNW 4.6 mph - N/A   Overcast
11:47 AM 66.2 °F 57.2 °F 73% 29.95 in 10.0 mi NNE 6.9 mph - N/A   Partly Cloudy
12:47 PM 66.2 °F 57.2 °F 73% 29.94 in 10.0 mi NNE 8.1 mph - N/A   Partly Cloudy
2:47 PM 71.6 °F 57.2 °F 60% 29.90 in 10.0 mi North 11.5 mph - N/A   Partly Cloudy
3:49 PM 71.6 °F 57.2 °F 60% 29.87 in 10.0 mi North 12.7 mph - N/A   Partly Cloudy
4:47 PM 73.4 °F 55.4 °F 53% 29.87 in 10.0 mi West 10.4 mph - N/A   Partly Cloudy
5:47 PM 71.6 °F 55.4 °F 57% 29.87 in 10.0 mi West 11.5 mph - N/A   Partly Cloudy
6:48 PM 68.0 °F 53.6 °F 60% 29.88 in 10.0 mi WNW 10.4 mph - N/A   Partly Cloudy
7:49 PM 64.4 °F 53.6 °F 68% - 10.0 mi North - - N/A   Partly Cloudy
8:47 PM 62.6 °F 53.6 °F 72% - - North - - N/A   Partly Cloudy
9:15 PM 62.6 °F 53.6 °F 72% 29.93 in 10.0 mi WNW 3.5 mph - N/A   Clear
9:35 PM 62.6 °F 53.6 °F 72% 29.94 in 10.0 mi Calm Calm - N/A   Clear
9:55 PM 62.6 °F 53.6 °F 72% 29.94 in 10.0 mi NW 5.8 mph - N/A   Clear
10:15 PM 62.6 °F 53.6 °F 72% 29.94 in 10.0 mi WNW 9.2 mph - N/A   Clear
10:35 PM 62.6 °F 53.6 °F 72% 29.94 in 10.0 mi NW 8.1 mph - N/A   Clear
10:55 PM 60.8 °F 53.6 °F 77% 29.94 in 10.0 mi NW 8.1 mph - N/A   Clear
11:15 PM 60.8 °F 53.6 °F 77% 29.94 in 10.0 mi NW 5.8 mph - N/A   Clear
11:35 PM 60.8 °F 53.6 °F 77% 29.95 in 10.0 mi NW 4.6 mph - N/A   Clear
11:55 PM 60.8 °F 53.6 °F 77% 29.95 in 10.0 mi WNW 5.8 mph - N/A   Clear